Hourly Data Report for December 31, 2020

SHEARWATER RCS
NOVA SCOTIA
Current Station Operator: ECCC - MSC

44°37'47.000" N
63°30'48.000" W
24.00 m
8205092
71264
AAW

Download Data

Hourly Data (December 2020)
Hourly Data Report for December 31, 2020
TIME
LST
Temp Definition
°C
Dew Point Definition
°C
Rel Hum Definition
%
Precip. Amount Definition
mm

Wind Dir Definition
10's deg

Wind Spd Definition
km/h
Visibility Definition
km
Stn Press Definition
kPa
Hmdx Definition


Wind Chill Definition


Weather Definition


00:00 -0.1 -5.0 70 0.0 21 10   101.78   -3 LegendNANA
01:00 1.3 -3.2 72 0.0 19 12   101.67     LegendNANA
02:00 3.8 -0.7 72 0.0 18 23   101.53     LegendNANA
03:00 5.0 1.3 77 0.0 20 25   101.49     LegendNANA
04:00 5.4 1.2 74 0.0 19 26   101.35     LegendNANA
05:00 5.9 2.9 81 0.0 19 27   101.17     LegendNANA
06:00 6.6 4.2 85 0.0 19 28   101.07     LegendNANA
07:00 7.2 5.5 89 0.0 20 30   100.88     LegendNANA
08:00 8.4 6.4 87 0.0 20 35   100.69     LegendNANA
09:00 8.6 7.0 89 0.2 21 40   100.63     LegendNANA
10:00 8.8 7.9 94 0.6 21 38   100.58     LegendNANA
11:00 9.1 8.2 94 1.0 22 35   100.58     LegendNANA
12:00 8.3 6.5 88 1.0 25 23   100.64     LegendNANA
13:00 7.0 5.3 89 1.0 27 15   100.68     LegendNANA
14:00 6.3 4.1 86 0.0 27 13   100.74     LegendNANA
15:00 6.2 4.2 87 0.0 25 10   100.76     LegendNANA
16:00 6.1 3.9 86 0.0 27 12   100.88     LegendNANA
17:00 4.9 0.7 74 0.0 27 12   100.96     LegendNANA
18:00 3.7 -1.0 71 0.0 28 17   101.10     LegendNANA
19:00 3.2 -1.2 73 0.0 28 15   101.20     LegendNANA
20:00 2.8 -1.4 74 0.0 28 15   101.29     LegendNANA
21:00 2.2 -1.8 75 0.0 28 9   101.38     LegendNANA
22:00 1.6 -1.9 78 0.0 30 8   101.41     LegendNANA
23:00 1.8 -1.9 76 0.0 26 9   101.47     LegendNANA

Notes on Data Quality.

Legend

  • E = Estimated
  • M = Missing
  • NA = Not Available*
  • [empty] = Indicates an unobserved value
Date modified: